Hourly Weather Rutki

Today, 16 June, Wednesday

Time Temperature Precipitation Wind Pressure Humidity
00:00 +13°C° 0 mm 2 mps 751 mmHg 93%
01:00 +13°C° 0 mm 2 mps 751 mmHg 92%
02:00 +12°C° 0 mm 2 mps 752 mmHg 91%
03:00 +10°C° 0 mm 2 mps 752 mmHg 90%
04:00 +9°C° 0 mm 3 mps 752 mmHg 89%
05:00 +12°C° 0 mm 2 mps 752 mmHg 83%
06:00 +13°C° 0 mm 2 mps 752 mmHg 77%
07:00 +15°C° 0 mm 2 mps 752 mmHg 71%
08:00 +16°C° 0 mm 2 mps 752 mmHg 64%
09:00 +18°C° 0 mm 2 mps 753 mmHg 58%
10:00 +19°C° 0 mm 2 mps 753 mmHg 51%
11:00 +20°C° 0 mm 2 mps 753 mmHg 50%
12:00 +21°C° 0 mm 2 mps 753 mmHg 48%
13:00 +21°C° 0 mm 3 mps 753 mmHg 46%
14:00 +22°C° 0 mm 3 mps 753 mmHg 47%
15:00 +22°C° 0 mm 3 mps 752 mmHg 48%
16:00 +22°C° 0 mm 3 mps 752 mmHg 49%
17:00 +20°C° 0 mm 2 mps 752 mmHg 57%
18:00 +19°C° 0 mm 2 mps 753 mmHg 65%
19:00 +18°C° 0 mm 2 mps 753 mmHg 73%
20:00 +16°C° 0 mm 2 mps 753 mmHg 77%
21:00 +15°C° 0 mm 2 mps 753 mmHg 80%
22:00 +14°C° 0 mm 2 mps 753 mmHg 84%
23:00 +13°C° 0 mm 2 mps 754 mmHg 86%

Tomorrow, 17 June, Thursday

Time Temperature Precipitation Wind Pressure Humidity
00:00 +13°C° 0 mm 2 mps 754 mmHg 87%
01:00 +12°C° 0 mm 2 mps 754 mmHg 88%
02:00 +12°C° 0 mm 2 mps 754 mmHg 89%
03:00 +12°C° 0 mm 2 mps 754 mmHg 89%
04:00 +12°C° 0 mm 2 mps 754 mmHg 89%
05:00 +14°C° 0 mm 2 mps 754 mmHg 82%
06:00 +16°C° 0 mm 2 mps 755 mmHg 75%
07:00 +18°C° 0 mm 3 mps 755 mmHg 68%
08:00 +20°C° 0 mm 3 mps 755 mmHg 63%
09:00 +21°C° 0 mm 3 mps 755 mmHg 57%
10:00 +22°C° 0 mm 3 mps 755 mmHg 52%
11:00 +24°C° 0 mm 3 mps 755 mmHg 50%
12:00 +25°C° 0 mm 3 mps 755 mmHg 48%
13:00 +26°C° 0 mm 3 mps 755 mmHg 47%
14:00 +26°C° 0 mm 3 mps 755 mmHg 48%
15:00 +26°C° 0 mm 3 mps 754 mmHg 50%
16:00 +26°C° 0 mm 3 mps 754 mmHg 52%
17:00 +25°C° 0 mm 3 mps 754 mmHg 59%
18:00 +23°C° 0 mm 2 mps 754 mmHg 67%
19:00 +21°C° 0 mm 2 mps 754 mmHg 75%
20:00 +20°C° 0 mm 2 mps 754 mmHg 79%
21:00 +18°C° 0 mm 3 mps 755 mmHg 83%
22:00 +17°C° 0 mm 3 mps 755 mmHg 87%
23:00 +17°C° 0 mm 3 mps 755 mmHg 88%

Day after tomorrow, 18 June, Friday

Time Temperature Precipitation Wind Pressure Humidity
00:00 +16°C° 0 mm 3 mps 755 mmHg 88%
01:00 +16°C° 0 mm 3 mps 755 mmHg 89%
02:00 +16°C° 0 mm 3 mps 755 mmHg 89%
03:00 +16°C° 0 mm 3 mps 755 mmHg 89%
04:00 +16°C° 0 mm 3 mps 755 mmHg 89%
05:00 +18°C° 0 mm 3 mps 755 mmHg 84%
06:00 +20°C° 0 mm 3 mps 755 mmHg 79%
07:00 +22°C° 0 mm 4 mps 755 mmHg 74%
08:00 +23°C° 0 mm 4 mps 755 mmHg 70%
09:00 +26°C° 0 mm 4 mps 755 mmHg 66%
10:00 +27°C° 0 mm 4 mps 755 mmHg 62%
11:00 +28°C° 0 mm 5 mps 754 mmHg 59%
12:00 +28°C° 0 mm 5 mps 754 mmHg 56%
13:00 +29°C° 0 mm 5 mps 754 mmHg 54%
14:00 +29°C° 0 mm 4 mps 754 mmHg 55%
15:00 +29°C° 0 mm 4 mps 754 mmHg 57%
16:00 +28°C° 0 mm 4 mps 754 mmHg 59%
17:00 +27°C° 0 mm 4 mps 754 mmHg 65%
18:00 +26°C° 0 mm 3 mps 753 mmHg 72%
19:00 +24°C° 0 mm 3 mps 753 mmHg 78%
20:00 +22°C° 0 mm 3 mps 754 mmHg 80%
21:00 +20°C° 0 mm 3 mps 754 mmHg 82%
22:00 +19°C° 0 mm 3 mps 754 mmHg 85%
23:00 +18°C° 0 mm 3 mps 754 mmHg 85%

19 June, Saturday

Time Temperature Precipitation Wind Pressure Humidity
00:00 +17°C° 0 mm 3 mps 754 mmHg 86%
01:00 +17°C° 0 mm 3 mps 754 mmHg 86%
02:00 +17°C° 0 mm 3 mps 754 mmHg 88%
03:00 +17°C° 0 mm 3 mps 754 mmHg 89%
04:00 +17°C° 0 mm 3 mps 754 mmHg 91%
05:00 +19°C° 0 mm 3 mps 754 mmHg 86%
06:00 +21°C° 0 mm 4 mps 754 mmHg 81%
07:00 +23°C° 0 mm 4 mps 754 mmHg 76%
08:00 +25°C° 0 mm 5 mps 754 mmHg 72%
09:00 +26°C° 0 mm 5 mps 754 mmHg 67%
10:00 +27°C° 0 mm 5 mps 754 mmHg 63%
11:00 +28°C° 0 mm 5 mps 754 mmHg 61%
12:00 +29°C° 0 mm 5 mps 753 mmHg 58%
13:00 +29°C° 0 mm 5 mps 753 mmHg 56%
14:00 +30°C° 0 mm 5 mps 753 mmHg 57%
15:00 +30°C° 0 mm 4 mps 753 mmHg 58%
16:00 +30°C° 0 mm 4 mps 753 mmHg 59%
17:00 +28°C° 0 mm 4 mps 753 mmHg 65%
18:00 +27°C° 0 mm 4 mps 753 mmHg 72%
19:00 +25°C° 0 mm 4 mps 753 mmHg 78%
20:00 +24°C° 0 mm 3 mps 753 mmHg 82%
21:00 +22°C° 0 mm 3 mps 753 mmHg 86%
22:00 +20°C° 0 mm 3 mps 753 mmHg 90%
23:00 +20°C° 0 mm 3 mps 753 mmHg 91%

20 June, Sunday

Time Temperature Precipitation Wind Pressure Humidity
00:00 +19°C° 0 mm 2 mps 753 mmHg 92%
01:00 +19°C° 0 mm 2 mps 753 mmHg 92%
02:00 +19°C° 0 mm 2 mps 753 mmHg 92%
03:00 +18°C° 0 mm 2 mps 753 mmHg 92%
04:00 +18°C° 0 mm 2 mps 753 mmHg 92%
05:00 +20°C° 0 mm 3 mps 753 mmHg 86%
06:00 +21°C° 0 mm 4 mps 753 mmHg 80%
07:00 +23°C° 0 mm 4 mps 753 mmHg 74%
08:00 +25°C° 0 mm 5 mps 753 mmHg 69%
09:00 +26°C° 0 mm 5 mps 753 mmHg 64%
10:00 +27°C° 0 mm 6 mps 753 mmHg 59%
11:00 +28°C° 0 mm 5 mps 752 mmHg 57%
12:00 +29°C° 0 mm 5 mps 752 mmHg 55%
13:00 +29°C° 0 mm 5 mps 752 mmHg 53%
14:00 +29°C° 0 mm 4 mps 752 mmHg 57%
15:00 +28°C° 0 mm 4 mps 752 mmHg 61%
16:00 +27°C° 0 mm 4 mps 751 mmHg 64%
17:00 +26°C° 0 mm 3 mps 751 mmHg 69%
18:00 +25°C° 0 mm 3 mps 751 mmHg 74%
19:00 +24°C° 0 mm 3 mps 751 mmHg 79%
20:00 +22°C° 0 mm 3 mps 751 mmHg 82%
21:00 +21°C° 0 mm 3 mps 751 mmHg 85%
22:00 +20°C° 0 mm 3 mps 751 mmHg 89%
23:00 +20°C° 0 mm 3 mps 751 mmHg 90%

21 June, Monday

Time Temperature Precipitation Wind Pressure Humidity
00:00 +19°C° 0 mm 3 mps 751 mmHg 91%
01:00 +19°C° 0 mm 3 mps 751 mmHg 93%
02:00 +19°C° 0 mm 3 mps 751 mmHg 93%
03:00 +19°C° 0 mm 3 mps 751 mmHg 93%
04:00 +19°C° 0 mm 3 mps 751 mmHg 93%
05:00 +20°C° 0 mm 3 mps 751 mmHg 86%
06:00 +22°C° 0 mm 4 mps 751 mmHg 80%
07:00 +25°C° 0 mm 5 mps 751 mmHg 74%
08:00 +26°C° 0 mm 5 mps 751 mmHg 68%
09:00 +27°C° 0 mm 6 mps 751 mmHg 63%
10:00 +28°C° 0 mm 6 mps 750 mmHg 57%
11:00 +29°C° 0 mm 6 mps 750 mmHg 55%
12:00 +29°C° 0 mm 6 mps 750 mmHg 52%
13:00 +30°C° 0 mm 6 mps 749 mmHg 50%
14:00 +30°C° 0 mm 5 mps 749 mmHg 52%
15:00 +30°C° 0 mm 5 mps 749 mmHg 54%
16:00 +29°C° 0 mm 5 mps 749 mmHg 55%
17:00 +28°C° 0 mm 4 mps 749 mmHg 62%
18:00 +26°C° 0 mm 4 mps 749 mmHg 68%
19:00 +25°C° 0 mm 3 mps 748 mmHg 75%
20:00 +24°C° 0 mm 3 mps 748 mmHg 77%
21:00 +22°C° 0 mm 3 mps 748 mmHg 79%
22:00 +21°C° 0 mm 3 mps 748 mmHg 81%
23:00 +21°C° 0 mm 3 mps 747 mmHg 82%
Show more